Weather in Al'yab'yevsky

Russia / Khanty-Mansi Autonomous Okrug — Yugra     61°12′55″N   62°46′27″E
temp.,
°C
wind,
m/s
gust,
m/s
humid.,
%
clouds,
%
prec.,
mm/h
press.,
hPa
HPBL,
m
26 february, fri
fri2623:00−25ne0110056 0.0 102620
02:00−26ssw1110029 0.0 102619
05:00−26ssw129922 0.0 102619
08:00−27s12990 0.0 102619
11:00−21s23960 0.0 1025181
14:00−17sse249279 0.0 1025326
17:00−18sse359589 0.0 1024295
20:00−22sse369994 0.0 1024103
27 february, sat
sat2723:00−23sse3610088 0.0 1024122
02:00−24sse2510093 0.0 1023107
05:00−25se369994 0.0 1023117
08:00−25se379897 0.0 1023172
11:00−22se369593 0.0 1023265
14:00−18se479123 0.0 1022350
17:00−20se489415 0.0 1022358
20:00−25ese389847 0.0 1022192
28 february, sun
sun2823:00−27ese359952 0.0 1022115
02:00−29ese239933 0.0 102172
05:00−29e239916 0.0 102176
08:00−30e23990 0.0 102062
11:00−24e24940 0.0 1020232
14:00−19ene249143 0.0 1019323
17:00−18ene259467 0.1 1018380
20:00−21ene229994 0.1 101844
1 march, mon
mon123:00−23ene229988 0.1 101920
02:00−24ne129985 0.0 101820
05:00−25ne129987 0.1 101819
08:00−26ene1110024 0.0 101819
11:00−19s119115 0.0 1017180
14:00−14ssw228887 0.0 1016304
17:00−14ssw249490 0.0 1016213
20:00−19ssw239925 0.0 101549
2 march, tue
tue223:00−20ssw369936 0.0 1014118
02:00−20ssw3810058 0.0 1012176
05:00−20s389866 0.0 1009169
08:00−18s4895100 0.0 1007242
11:00−14s4992100 0.0 1005335
14:00−12s51091100 0.0 1003450
17:00−9ssw4994100 0.4 1002577
20:00−9ssw3896100 0.4 1001358